Regional Weather Roundup
Issued by NWS New Orleans/Baton Rouge, LA

Home | Current Version | Previous Version | Text Only | Print | Product List | Glossary On
Versions: 1 2 3 4 5 6 7 8 9 10 11 12 13 14 15 16 17 18 19 20 21 22 23 24 25 26 27
000
ASUS44 KLIX 242305
RWRLIX
NEW ORLEANS REGIONAL WEATHER ROUNDUP
NATIONAL WEATHER SERVICE NEW ORLEANS LA
600 PM CDT TUE APR 24 2018

NOTE: "FAIR" INDICATES FEW OR NO CLOUDS BELOW 12,000 FEET WITH NO
      SIGNIFICANT WEATHER AND/OR OBSTRUCTIONS TO VISIBILITY.
      SKY/WX - SKY CONDITION AND SIGNIFICANT WEATHER.
      TMP - AIR TEMPERATURE.     DP    - DEWPOINT TEMPERATURE.
      RH  - RELATIVE HUMIDITY.   PRES  - PRESSURE.
      HI  - HEAT INDEX.          WCI   - WIND CHILL INDEX.

*  THESE STATIONS ARE NOT NWS OR FAA STATIONS AND ARE NOT UNDER
   NWS QUALITY CONTROL.

LAZ038-040-048-061>063-065>067-069-250000-
SOUTHEAST LOUISIANA

CITY           SKY/WX    TMP DP  RH WIND       PRES   REMARKS
N.O. INTL ARPT FAIR      78  57  48 NW12G17   29.95R
N.O. LAKEFRONT FAIR      76  64  66 W8        29.95S
N.O. DOWNTOWN* FAIR      79  55  43 VRB6      29.96R
RESERVE*       MOCLDY    79  55  43 N5        29.96R
SLIDELL        FAIR      78  53  41 NW9       29.94R
BATON ROUGE    FAIR      74  53  48 VRB7      29.97S
BOOTHVILLE     FAIR      74  62  66 SW12      29.96S
BELLE CHASSE   FAIR      78  57  48 W8        29.94S
BOGALUSA*      FAIR      76  54  47 N6        29.96S
GALLIANO*      MOCLDY    77  53  43 NW7       29.95S
NEW ROADS*     FAIR      77  56  48 NW8       29.99R
GONZALES*      FAIR      77  54  44 NW10      29.96R
HAMMOND*       FAIR      75  54  46 NW12      29.96R
HOUMA*         MOSUNNY   79  55  44 NW10      29.95S
PORT FOURCHON* CLEAR     73  63  68 W15       29.96S

$$

MSZ070-080>082-250000-
SOUTHERN MISSISSIPPI

CITY           SKY/WX    TMP DP  RH WIND       PRES   REMARKS
MCCOMB         PTSUNNY   73  53  49 N10       29.98R
GULFPORT       FAIR      78  55  44 NW10      29.93R
BILOXI         FAIR      76  55  47 N13       29.93R
PASCAGOULA     FAIR      75  53  46 NW9G16    29.93R
STENNIS ARPT*  MOSUNNY   77  55  47 N8        29.94R

$$

COASTAL OBSERVATIONS
LAKE AND NEARSHORE STATIONS

STATION/POSITION TIME  SKY/WX   TEMP    WIND        PRES    WAVE
                                AIR SEA DIR/SP/G            HT/PER
                 (UTC)          (F)     (DEG/KT/KT) (MB)    (FT/S)
WAVELAND YACHT   2248            75 72  350/ 13/ 15 1014.0
GRAND ISLE       2248            73 71  260/  9/ 12 1014.1
SOUTHWEST PASS   2248            70 60  270/ 14/ 16 1015.3
NEW CANAL        2248            77 73  290/  4/  6 1014.0
SHELL BEACH      2248            75 75  290/ 12/ 14 1014.2

OFFSHORE STATIONS

STATION/POSITION TIME  SKY/WX   TEMP    WIND        PRES    WAVE
                                AIR SEA DIR/SP/G            HT/PER
                 (UTC)          (F)     (DEG/KT/KT) (MB)    (FT/S)
64 S DAUPHIN ISL 2250               73  250/ 12/ 16 1014.5    2/ 4

$$





USA.gov is the U.S. government's official web portal to all federal, state and local government web resources and services.